CW3077 Weather Reports


Display with metric or nautical units.
time (UTC)temp
F
wind
direction
speed
MPH
gust
MPH
rain 1hr
in
rain 24hr
in
rain mn
in
humidity
%
barometer
mb
20260504050516 65 158 5.0 14.0 0.00 0.00 0.00 65 1018.3
20260504050016 66 158 5.0 11.0 0.00 0.00 0.00 65 1018.3
20260504045517 66 158 4.0 13.0 0.00 0.00 0.00 65 1018.2
20260504045017 65 158 4.0 12.0 0.00 0.00 0.00 64 1018.3
20260504044517 65 158 2.0 7.0 0.00 0.00 0.00 63 1018.4
20260504044017 65 158 3.0 7.0 0.00 0.00 0.00 63 1018.4
20260504043517 66 158 2.0 9.0 0.00 0.00 0.00 62 1018.8
20260504043017 66 158 3.0 7.0 0.00 0.00 0.00 60 1018.6
20260504042517 66 158 3.0 9.0 0.00 0.00 0.00 60 1018.5
20260504042017 66 158 2.0 7.0 0.00 0.00 0.00 59 1018.5
20260504041517 66 158 4.0 9.0 0.00 0.00 0.00 59 1018.6
20260504041017 66 158 4.0 11.0 0.00 0.00 0.00 58 1018.7
20260504040517 66 158 3.0 10.0 0.00 0.00 0.00 59 1018.6
20260504040017 65 158 3.0 8.0 0.00 0.00 0.00 60 1018.6
20260504035537 65 158 2.0 8.0 0.00 0.00 0.00 62 1018.7
20260504035017 64 158 1.0 4.0 0.00 0.00 0.00 63 1018.4
20260504034517 64 158 1.0 2.0 0.00 0.00 0.00 63 1018.4
20260504034016 64 158 1.0 6.0 0.00 0.00 0.00 64 1018.5
20260504033517 64 0.0 4.0 0.00 0.00 0.00 63 1018.5
20260504033037 64 180 1.0 3.0 0.00 0.00 0.00 64 1018.5
20260504032537 63 180 1.0 4.0 0.00 0.00 0.00 64 1018.4
20260504032037 64 0.0 1.0 0.00 0.00 0.00 62 1018.5
20260504031517 64 0.0 1.0 0.00 0.00 0.00 60 1018.5
20260504031017 65 0.0 1.0 0.00 0.00 0.00 59 1018.6
20260504030517 65 0.0 1.0 0.00 0.00 0.00 58 1018.4
20260504030037 65 0.0 2.0 0.00 0.00 0.00 57 1018.6
20260504025557 66 0.0 2.0 0.00 0.00 0.00 57 1018.6
20260504025016 65 0.0 1.0 0.00 0.00 0.00 57 1018.5
20260504024516 65 0.0 1.0 0.00 0.00 0.00 57 1018.7
20260504024016 65 0.0 1.0 0.00 0.00 0.00 57 1018.6
20260504023516 66 0.0 1.0 0.00 0.00 0.00 56 1018.6
20260504023036 66 0.0 1.0 0.00 0.00 0.00 56 1018.5
20260504022516 66 0.0 2.0 0.00 0.00 0.00 55 1018.4
20260504022037 66 0.0 1.0 0.00 0.00 0.00 55 1018.5
20260504021536 67 0.0 2.0 0.00 0.00 0.00 53 1018.5
20260504021016 67 0.0 2.0 0.00 0.00 0.00 53 1018.4
20260504020516 67 0.0 3.0 0.00 0.00 0.00 51 1018.3
20260504020016 68 0.0 2.0 0.00 0.00 0.00 51 1018.3
20260504015516 68 0.0 2.0 0.00 0.00 0.00 50 1018.1
20260504015016 68 0.0 2.0 0.00 0.00 0.00 50 1017.8
20260504014516 68 0.0 3.0 0.00 0.00 0.00 49 1017.8
20260504014016 69 0.0 2.0 0.00 0.00 0.00 48 1017.8
20260504013517 69 0.0 2.0 0.00 0.00 0.00 48 1017.7
20260504013016 70 0.0 4.0 0.00 0.00 0.00 47 1017.7
20260504012557 70 180 1.0 4.0 0.00 0.00 0.00 47 1017.7
20260504012016 70 180 1.0 5.0 0.00 0.00 0.00 46 1017.8
20260504011517 71 180 1.0 3.0 0.00 0.00 0.00 46 1017.7
20260504011016 71 180 1.0 4.0 0.00 0.00 0.00 45 1017.8
20260504010516 71 158 1.0 7.0 0.00 0.00 0.00 44 1017.6
20260504010016 72 158 1.0 3.0 0.00 0.00 0.00 44 1017.6
20260504005537 72 180 2.0 5.0 0.00 0.00 0.00 44 1017.6
20260504005016 72 180 2.0 7.0 0.00 0.00 0.00 43 1017.6
20260504004516 72 180 2.0 8.0 0.00 0.00 0.00 43 1017.4
20260504004016 73 225 2.0 6.0 0.00 0.00 0.00 43 1017.6
20260504003516 73 158 2.0 7.0 0.00 0.00 0.00 44 1017.6
20260504003016 73 180 2.0 6.0 0.00 0.00 0.00 44 1017.8
20260504002516 73 180 2.0 9.0 0.00 0.00 0.00 43 1017.6
20260504002016 74 180 3.0 8.0 0.00 0.00 0.00 43 1017.7
20260504001556 74 180 2.0 9.0 0.00 0.00 0.00 43 1017.9
20260504001036 74 180 3.0 9.0 0.00 0.00 0.00 42 1017.9
20260504000516 74 180 2.0 10.0 0.00 0.00 0.00 43 1018.2
20260504000036 74 203 2.0 9.0 0.00 0.00 0.00 42 1018.1
20260503235516 74 180 2.0 6.0 0.00 0.00 0.00 42 1018.2
20260503235016 75 180 3.0 9.0 0.00 0.00 0.00 42 1018.2
20260503234516 75 180 3.0 11.0 0.00 0.00 0.00 43 1018.1
20260503234016 75 180 1.0 3.0 0.00 0.00 0.00 44 1018.2
20260503233516 75 180 2.0 5.0 0.00 0.00 0.00 43 1018.4
20260503233016 75 180 2.0 5.0 0.00 0.00 0.00 41 1018.3
20260503232516 75 158 2.0 7.0 0.00 0.00 0.00 41 1018.3
20260503232016 75 203 3.0 10.0 0.00 0.00 0.00 38 1018.4
20260503231516 75 203 2.0 6.0 0.00 0.00 0.00 38 1018.2
20260503231016 75 180 2.0 11.0 0.00 0.00 0.00 38 1018.2
20260503230536 76 180 3.0 8.0 0.00 0.00 0.00 39 1018.2
20260503230016 77 158 1.0 6.0 0.00 0.00 0.00 38 1018.3
20260503225516 77 158 2.0 6.0 0.00 0.00 0.00 38 1018.4
20260503225016 77 203 4.0 10.0 0.00 0.00 0.00 37 1018.3
20260503224516 77 180 4.0 11.0 0.00 0.00 0.00 37 1018.5
20260503224016 77 180 4.0 11.0 0.00 0.00 0.00 36 1018.6
20260503223516 77 180 4.0 13.0 0.00 0.00 0.00 37 1018.6
20260503223016 78 158 3.0 9.0 0.00 0.00 0.00 36 1018.7
20260503222516 78 180 3.0 7.0 0.00 0.00 0.00 34 1018.8
20260503222016 78 180 5.0 13.0 0.00 0.00 0.00 34 1018.8
20260503221516 78 158 4.0 11.0 0.00 0.00 0.00 33 1018.9
20260503221036 78 180 3.0 9.0 0.00 0.00 0.00 36 1019.0
20260503220516 78 180 2.0 9.0 0.00 0.00 0.00 34 1019.0
20260503220016 78 203 4.0 9.0 0.00 0.00 0.00 36 1019.0
20260503215516 78 158 5.0 12.0 0.00 0.00 0.00 39 1019.1
20260503215016 78 158 4.0 9.0 0.00 0.00 0.00 38 1019.2
20260503214516 78 113 3.0 11.0 0.00 0.00 0.00 38 1019.3
20260503214016 78 203 2.0 8.0 0.00 0.00 0.00 39 1019.3
20260503213516 78 180 4.0 11.0 0.00 0.00 0.00 37 1019.5
20260503213016 78 158 4.0 13.0 0.00 0.00 0.00 36 1019.6
20260503212516 78 158 5.0 13.0 0.00 0.00 0.00 37 1019.7
20260503212016 77 158 5.0 10.0 0.00 0.00 0.00 37 1019.6
20260503211516 77 225 3.0 10.0 0.00 0.00 0.00 40 1019.7
20260503211016 77 225 3.0 10.0 0.00 0.00 0.00 37 1019.7
20260503210617 78 180 4.0 10.0 0.00 0.00 0.00 34 1020.1
20260503210016 79 225 3.0 9.0 0.00 0.00 0.00 36 1019.9
20260503205516 79 180 3.0 10.0 0.00 0.00 0.00 33 1020.2
20260503205016 79 225 5.0 12.0 0.00 0.00 0.00 36 1020.2
20260503204516 79 158 4.0 10.0 0.00 0.00 0.00 38 1020.2
20260503204036 79 180 4.0 13.0 0.00 0.00 0.00 34 1020.4
20260503203556 78 203 2.0 8.0 0.00 0.00 0.00 31 1020.4
20260503203016 79 225 3.0 12.0 0.00 0.00 0.00 36 1020.4
20260503202516 80 180 2.0 7.0 0.00 0.00 0.00 33 1020.7
20260503202016 82 135 4.0 10.0 0.00 0.00 0.00 31 1020.9
20260503201516 81 113 6.0 14.0 0.00 0.00 0.00 32 1021.0
20260503201016 81 135 4.0 12.0 0.00 0.00 0.00 31 1021.0
20260503200516 80 158 4.0 14.0 0.00 0.00 0.00 29 1021.0
20260503200036 82 113 4.0 10.0 0.00 0.00 0.00 34 1021.1
20260503195515 80 113 3.0 9.0 0.00 0.00 0.00 33 1021.2
20260503195036 80 158 5.0 13.0 0.00 0.00 0.00 32 1021.2
20260503194516 80 158 3.0 10.0 0.00 0.00 0.00 32 1021.2
20260503194016 81 158 4.0 11.0 0.00 0.00 0.00 32 1021.3
20260503193516 81 180 3.0 7.0 0.00 0.00 0.00 37 1021.4
20260503193016 79 225 4.0 10.0 0.00 0.00 0.00 33 1021.6
20260503192516 80 203 4.0 10.0 0.00 0.00 0.00 32 1021.6
20260503192015 81 135 3.0 10.0 0.00 0.00 0.00 31 1021.6
20260503191515 81 180 4.0 9.0 0.00 0.00 0.00 33 1021.7
20260503191036 81 135 4.0 11.0 0.00 0.00 0.00 32 1021.8
20260503190515 81 135 6.0 15.0 0.00 0.00 0.00 30 1022.0
20260503190015 80 158 4.0 9.0 0.00 0.00 0.00 36 1021.9
20260503185516 79 203 5.0 11.0 0.00 0.00 0.00 33 1022.0
20260503185016 80 135 4.0 10.0 0.00 0.00 0.00 31 1022.2
20260503184516 80 180 2.0 10.0 0.00 0.00 0.00 37 1022.3
20260503184036 80 158 4.0 11.0 0.00 0.00 0.00 37 1022.3
20260503183516 80 203 4.0 12.0 0.00 0.00 0.00 36 1022.3
20260503183015 79 225 4.0 11.0 0.00 0.00 0.00 36 1022.3
20260503182515 79 180 3.0 10.0 0.00 0.00 0.00 36 1022.5
20260503182016 80 135 3.0 7.0 0.00 0.00 0.00 33 1022.6
20260503181516 78 135 3.0 11.0 0.00 0.00 0.00 38 1022.7
20260503181015 78 225 4.0 9.0 0.00 0.00 0.00 39 1022.7
20260503180536 79 180 4.0 10.0 0.00 0.00 0.00 36 1022.8
20260503180015 79 180 4.0 13.0 0.00 0.00 0.00 36 1023.0
20260503175515 79 135 3.0 8.0 0.00 0.00 0.00 37 1023.0
20260503175015 79 203 5.0 14.0 0.00 0.00 0.00 33 1023.0
20260503174516 80 158 3.0 10.0 0.00 0.00 0.00 39 1023.2
20260503174015 79 113 3.0 9.0 0.00 0.00 0.00 37 1023.1
20260503173515 77 203 3.0 10.0 0.00 0.00 0.00 37 1023.1
20260503173015 78 180 3.0 9.0 0.00 0.00 0.00 34 1023.2
20260503172515 79 135 2.0 8.0 0.00 0.00 0.00 36 1023.4
20260503172016 79 158 3.0 8.0 0.00 0.00 0.00 34 1023.5
20260503171515 78 225 3.0 7.0 0.00 0.00 0.00 37 1023.5
20260503171036 77 225 2.0 7.0 0.00 0.00 0.00 40 1023.7
20260503170515 78 135 2.0 10.0 0.00 0.00 0.00 41 1023.8
20260503150515 71 225 2.0 6.0 0.00 0.00 0.00 55 1024.3
20260503131055 57 0.0 0.0 0.00 0.00 0.00 86 1023.5
20260503130517 56 0.0 0.0 0.00 0.00 0.00 86 1023.5
20260503110517 53 0.0 3.0 0.00 0.00 0.00 88 1022.5
20260503081516 55 0.0 1.0 0.00 0.00 0.00 82 1022.5
20260503081016 55 0.0 1.0 0.00 0.00 0.00 83 1022.5
20260503080516 55 0.0 0.0 0.00 0.00 0.00 84 1022.4
20260503072516 55 0.0 1.0 0.00 0.00 0.00 85 1022.7
20260503072016 55 0.0 1.0 0.00 0.00 0.00 86 1022.8
20260503071516 55 0.0 1.0 0.00 0.00 0.00 86 1022.8
20260503071016 55 0.0 0.0 0.00 0.00 0.00 85 1022.9
20260503070516 55 0.0 0.0 0.00 0.00 0.00 85 1022.9